Terminal Aerodrome Forecast
Issued by NWS Omaha/Valley, NE

Home | Current Version | Previous Version | Graphics & Text | Print | Product List | Glossary On
Versions: 1 2 3 4 5 6 7 8 9 10 11 12 13 14 15 16
000
FTUS43 KOAX 201120
TAFOFK
TAF
KOFK 201120Z 2012/2112 19006KT P6SM SCT060 SCT150
     FM210400 25006KT P6SM OVC250
     FM210700 31006KT P6SM OVC100=

USA.gov is the U.S. government's official web portal to all federal, state and local government web resources and services.